TimeEST,TemperatureF,Dew PointF,Humidity,Sea Level PressureIn,VisibilityMPH,Wind Direction,Wind SpeedMPH,Gust SpeedMPH,PrecipitationIn,Events,Conditions,WindDirDegrees,DateUTC
12:51 AM,35.1,27.0,72,30.02,10.0,NNE,24.2,32.2,N/A,,Overcast,20,2013-03-07 05:51:00
1:51 AM,35.1,27.0,72,30.01,6.0,NNE,18.4,34.5,0.00,Snow,Light Snow,20,2013-03-07 06:51:00
2:51 AM,34.0,27.0,75,29.99,9.0,North,19.6,31.1,0.00,,Overcast,10,2013-03-07 07:51:00
3:51 AM,34.0,26.1,73,30.00,10.0,NNE,21.9,29.9,0.00,,Overcast,20,2013-03-07 08:51:00
4:51 AM,34.0,26.1,73,30.00,10.0,North,21.9,29.9,0.00,Snow,Light Snow,10,2013-03-07 09:51:00
5:51 AM,34.0,26.1,73,30.02,10.0,North,19.6,31.1,0.00,,Mostly Cloudy,10,2013-03-07 10:51:00
6:51 AM,33.1,26.1,75,30.04,5.0,North,16.1,25.3,0.00,Snow,Light Snow,10,2013-03-07 11:51:00
7:14 AM,33.8,26.6,75,30.03,7.0,North,16.1,25.3,0.00,Snow,Light Snow,360,2013-03-07 12:14:00
7:51 AM,33.1,27.0,78,30.05,5.0,North,18.4,27.6,0.00,Snow,Light Snow,360,2013-03-07 12:51:00
7:57 AM,33.8,26.6,75,30.04,2.5,North,15.0,23.0,0.00,Snow,Light Snow,10,2013-03-07 12:57:00
8:51 AM,32.0,28.9,88,30.04,2.0,North,19.6,25.3,0.00,Snow,Light Snow,360,2013-03-07 13:51:00
9:46 AM,33.8,28.4,81,30.02,6.0,North,20.7,31.1,0.00,Snow,Light Snow,360,2013-03-07 14:46:00
9:51 AM,33.1,28.9,85,30.03,7.0,North,17.3,28.8,0.00,Snow,Light Snow,10,2013-03-07 14:51:00
10:51 AM,35.1,28.9,78,30.03,10.0,North,17.3,31.1,0.00,,Overcast,10,2013-03-07 15:51:00
11:44 AM,37.4,28.4,70,30.03,10.0,North,18.4,26.5,0.01,,Overcast,360,2013-03-07 16:44:00
11:51 AM,37.0,28.0,70,30.04,10.0,North,18.4,25.3,0.01,,Overcast,360,2013-03-07 16:51:00
12:35 PM,35.6,28.4,75,30.03,2.5,North,19.6,29.9,0.00,Snow,Light Snow,10,2013-03-07 17:35:00
12:51 PM,36.0,30.0,79,30.03,2.0,NNE,18.4,27.6,0.00,Snow,Light Snow,20,2013-03-07 17:51:00
1:23 PM,35.6,32.0,87,30.02,2.0,North,13.8,-,0.00,Snow,Light Snow,10,2013-03-07 18:23:00
1:49 PM,33.8,32.0,93,30.02,2.0,North,16.1,21.9,0.00,Snow,Light Snow,360,2013-03-07 18:49:00
1:51 PM,34.0,30.9,89,30.03,2.0,North,16.1,23.0,0.00,Snow,Light Snow,360,2013-03-07 18:51:00
1:53 PM,33.8,30.2,87,30.02,1.0,North,15.0,-,0.00,Snow,Light Snow,360,2013-03-07 18:53:00
2:15 PM,35.6,32.0,87,30.02,1.0,North,12.7,-,0.01,Snow,Light Snow,350,2013-03-07 19:15:00
2:51 PM,35.1,32.0,89,30.03,1.5,North,12.7,-,0.02,Snow,Light Snow,360,2013-03-07 19:51:00
3:17 PM,35.6,32.0,87,30.03,2.0,North,13.8,-,0.01,Snow,Light Snow,360,2013-03-07 20:17:00
3:35 PM,35.6,32.0,87,30.03,2.0,North,16.1,-,0.01,Snow,Light Snow,360,2013-03-07 20:35:00
3:51 PM,35.1,30.9,85,30.04,2.0,North,16.1,20.7,0.01,Snow,Light Snow,360,2013-03-07 20:51:00
4:40 PM,35.6,30.2,81,30.03,5.0,North,12.7,-,0.00,Snow,Light Snow,360,2013-03-07 21:40:00
4:51 PM,35.1,30.9,85,30.04,6.0,North,11.5,-,0.00,Snow,Light Snow,350,2013-03-07 21:51:00
5:34 PM,33.8,30.2,87,30.05,2.5,North,13.8,-,0.00,Snow,Light Snow,360,2013-03-07 22:34:00
5:38 PM,33.8,30.2,87,30.05,1.2,North,12.7,-,0.00,Snow,Light Snow,360,2013-03-07 22:38:00
5:51 PM,33.1,30.9,92,30.05,1.0,North,12.7,20.7,0.00,Snow,Light Snow,360,2013-03-07 22:51:00
5:54 PM,33.8,30.2,87,30.05,1.0,North,15.0,20.7,0.00,Snow,Light Snow,360,2013-03-07 22:54:00
6:12 PM,33.8,30.2,87,30.05,1.5,North,12.7,-,0.01,Snow,Light Snow,350,2013-03-07 23:12:00
6:18 PM,33.8,30.2,87,30.05,2.0,North,12.7,-,0.01,Snow,Light Snow,360,2013-03-07 23:18:00
6:27 PM,33.8,30.2,87,30.05,1.5,North,12.7,19.6,0.01,Snow,Light Snow,360,2013-03-07 23:27:00
6:47 PM,33.8,32.0,93,30.05,1.0,North,12.7,20.7,0.03,Snow,Light Snow,360,2013-03-07 23:47:00
6:51 PM,33.1,32.0,96,30.06,1.0,North,13.8,20.7,0.03,Snow,Light Snow,350,2013-03-07 23:51:00
7:38 PM,33.8,32.0,93,30.05,1.5,North,10.4,-,0.02,Snow,Light Snow,350,2013-03-08 00:38:00
7:51 PM,33.1,32.0,96,30.05,1.5,North,11.5,19.6,0.03,Snow,Light Snow,350,2013-03-08 00:51:00
8:00 PM,33.8,32.0,93,30.04,2.0,North,11.5,19.6,0.01,Snow,Light Snow,360,2013-03-08 01:00:00
8:28 PM,33.8,32.0,93,30.04,2.0,North,11.5,-,0.01,Snow,Light Snow,360,2013-03-08 01:28:00
8:51 PM,33.1,32.0,96,30.05,2.0,NNW,6.9,-,0.02,Snow,Light Snow,340,2013-03-08 01:51:00
9:44 PM,33.8,30.2,87,30.02,1.5,North,11.5,-,0.00,Snow,Light Snow,360,2013-03-08 02:44:00
9:51 PM,33.1,30.9,92,30.03,1.5,North,12.7,-,0.01,Snow,Light Snow,350,2013-03-08 02:51:00
10:51 PM,33.1,30.9,92,30.02,1.5,North,12.7,-,0.02,Snow,Light Snow,350,2013-03-08 03:51:00
11:51 PM,33.1,30.9,92,30.01,1.2,North,13.8,-,0.01,Snow,Light Snow,360,2013-03-08 04:51:00